Regional Weather Roundup
Issued by NWS Green Bay, WI

Home | Current Version | Previous Version | Graphics & Text | Print | Product List | Glossary Off
Versions: 1 2 3 4 5 6 7 8 9 10 11 12 13 14 15 16 17 18 19 20 21 22 23 24 25 26 27 28 29 30 31 32 33 34 35 36 37 38 39 40 41 42 43 44 45 46 47 48 49 50

000
ASUS43 KGRB 181311
RWRGRB

NORTH-CENTRAL AND NORTHEAST WISCONSIN REGIONAL WEATHER ROUNDUP
NATIONAL WEATHER SERVICE GREEN BAY WI
700 AM CST WED JAN 18 2017

WIZ005-009-010>012-018-019-181400-
NORTH CENTRAL WISCONSIN

CITY           SKY/WX    TMP DP  RH WIND       PRES   REMARKS
IRONWOOD       CLOUDY    31  25  78 S13       29.80F
MANITOWISH WTR CLOUDY    27  27 100 S10       29.86S
ARBOR VITAE    CLOUDY    29  28  95 SW8       29.88S
EAGLE RIVER    CLOUDY    27  27 100 SW10G16   29.88S
LAND O LAKES   CLOUDY    26  25  98 SW7       29.88R
RHINELANDER    CLOUDY    29  28  96 SW14      29.90S
PHILLIPS       CLOUDY   N/A N/A N/A SW6       29.90S
ANTIGO         CLOUDY    28  28 100 W10       29.94S FOG
TOMAHAWK       CLOUDY    28  27  96 CALM      29.92F
MERRILL        CLOUDY    29  29 100 CALM        N/A
$$

WIZ013-073-181400-
NORTHEAST WISCONSIN

CITY           SKY/WX    TMP DP  RH WIND       PRES   REMARKS
IRON MOUNTAIN  CLOUDY    13   8  81 CALM      29.88S
MARINETTE      NOT AVBL
OCONTO         CLOUDY    32  32  99 SW10      29.99R
$$

WIZ017-030-035>037-045-181400-
CENTRAL WISCONSIN

CITY           SKY/WX    TMP DP  RH WIND       PRES   REMARKS
MEDFORD        CLOUDY    28  27  96 SW9       29.94F FOG
WAUSAU         CLOUDY    29  28  96 SW12      29.96F
MOSINEE        FOG       30  30 100 SW13      29.99S VSB 3/4
MARSHFIELD     CLOUDY    29  28  96 SW10      29.97S
WISC RAPIDS    CLOUDY    31  31 100 SW9       30.03R
STEVENS POINT  CLOUDY    30  30 100 SW8       30.01R FOG
WAUPACA        CLOUDY    34  33  96 CALM      30.02R FOG
SHAWANO        CLOUDY    33  32  96 CALM      29.99R FOG
CLINTONVILLE   CLOUDY    32  32 100 SW9       30.01R FOG
WAUTOMA        CLOUDY    32  32 100 SW9       30.04R FOG
$$

WIZ038-039-048-051-181400-
FOX VALLEY

CITY           SKY/WX    TMP DP  RH WIND       PRES   REMARKS
NWS GREEN BAY  CLOUDY    34  34 100 SW8       30.00F FOG
APPLETON       FOG       32  32 100 SW14      29.99F VSB 1/2
OSHKOSH        CLOUDY    32  31  96 SW10      30.02S FOG
FOND DU LAC    CLOUDY    32  30  92 W7        30.04S FOG
$$

WIZ022-050-052-181400-
EAST CENTRAL WISCONSIN

CITY           SKY/WX    TMP DP  RH WIND       PRES   REMARKS
EPHRAIM        FOG       31  31 100 SW8       29.94F VSB 1/4
WASHINGTON ISL CLOUDY    31  31  99 SW8       29.94S FOG
STURGEON BAY   FOG       31  31 100 SW9       29.98S VSB 1/2
MANITOWOC      CLOUDY    33  32  96 W7        30.03S FOG
SHEBOYGAN      CLOUDY    33  31  92 W14       30.04R FOG
$$

LMZ563-521-522-541>543-181400-
LAKESHORE

STATION/POSITION TIME  TEMP    WIND        PRES    VSBY  WAVE
                       AIR SEA DIR/SP/G                  HT/PER
                 (UTC) (F)     (DEG/KT/KT) (MB)    (MI)  (FT/S)
SHEBOYGAN LKSHOR 1200   34     250/ 13/ 15 1017.0R
KEWAUNEE LKSHORE 1248   32     240/  5/  8 1015.6R
ALGOMA MARINA    1253          260/ 10/ 12   N/A
NORTHPORT PIER   1240   32      CALM  /  6 1014.2S
SISTER BAY LKSHO 1250   31     210/  8/ 10   N/A
MENOMINEE LKSHOR 1248          220/  9/ 12 1014.1R
$$




USA.gov is the U.S. government's official web portal to all federal, state and local government web resources and services.